Location: Igri�s
(42.2144°N, 0.4320°W)
Time: 13:43:39
(UTC+00:00)

Cosmos 1833 - Pass Details

Date: 13 August 2020
Orbit: 836 x 863 km, 70.9° (Epoch: 25 September)

Event Time Altitude Azimuth Distance (km) Brightness Sun altitude
Exits shadow 22:24:18 75° 25° (NNE) 873 4.2 -28.8°
Drops below altitude 10° 22:29:26 10° 25° (NNE) 2,468 7.0 -29.2°
Sets 22:31:54 0° 25° (NNE) 3,410 7.9 -29.4°
